DW6494 Weather Reports


Display with metric or nautical units.
time (UTC)temp
F
wind
direction
speed
MPH
gust
MPH
rain 1hr
in
rain 24hr
in
rain mn
in
humidity
%
barometer
mb
20210804191335 89 0 0.0 0.0 0.00 0.00 0.00 23 1022.7
20210804190730 88 0 0.0 0.0 0.00 0.00 0.00 25 1022.7
20210804190229 88 0 0.0 0.0 0.00 0.00 0.00 26 1022.7
20210804185655 88 0 0.0 0.0 0.00 0.00 0.00 28 1022.7
20210804185154 87 0 0.0 0.0 0.00 0.00 0.00 28 1022.7
20210804184445 87 0 0.0 0.0 0.00 0.00 0.00 29 1022.7
20210804183944 87 0 0.0 0.0 0.00 0.00 0.00 26 1023.0
20210804183234 86 0 0.0 0.0 0.00 0.00 0.00 26 1023.0
20210804182733 86 0 0.0 0.0 0.00 0.00 0.00 30 1023.0
20210804182022 85 0 0.0 0.0 0.00 0.00 0.00 29 1023.0
20210804181522 86 0 0.0 0.0 0.00 0.00 0.00 29 1023.0
20210804180844 85 0 0.0 0.0 0.00 0.00 0.00 29 1023.4
20210804180343 84 0 0.0 0.0 0.00 0.00 0.00 30 1023.4
20210804175738 85 0 0.0 0.0 0.00 0.00 0.00 29 1023.4
20210804175237 86 0 0.0 0.0 0.00 0.00 0.00 33 1023.4
20210804174736 85 0 0.0 0.0 0.00 0.00 0.00 30 1023.4
20210804174130 86 0 0.0 0.0 0.00 0.00 0.00 30 1023.4
20210804173452 85 0 0.0 0.0 0.00 0.00 0.00 31 1023.4
20210804172951 84 0 0.0 0.0 0.00 0.00 0.00 33 1023.4
20210804172345 84 0 0.0 0.0 0.00 0.00 0.00 35 1023.4
20210804171812 83 0 0.0 0.0 0.00 0.00 0.00 36 1023.4
20210804171311 82 0 0.0 0.0 0.00 0.00 0.00 38 1023.4
20210804170810 82 0 0.0 0.0 0.00 0.00 0.00 36 1023.4
20210804170237 82 0 0.0 0.0 0.00 0.00 0.00 37 1023.4
20210804165736 82 0 0.0 0.0 0.00 0.00 0.00 35 1023.4
20210804165235 82 0 0.0 0.0 0.00 0.00 0.00 38 1023.4
20210804164734 82 0 0.0 0.0 0.00 0.00 0.00 37 1023.7
20210804164056 82 0 0.0 0.0 0.00 0.00 0.00 37 1023.7
20210804163555 82 0 0.0 0.0 0.00 0.00 0.00 38 1023.7
20210804163022 82 0 0.0 0.0 0.00 0.00 0.00 38 1023.7
20210804162448 82 0 0.0 0.0 0.00 0.00 0.00 37 1023.7
20210804161947 81 0 0.0 0.0 0.00 0.00 0.00 37 1023.4
20210804161310 80 0 0.0 0.0 0.00 0.00 0.00 38 1023.4
20210804160808 80 0 0.0 0.0 0.00 0.00 0.00 38 1023.4
20210804160307 79 0 0.0 0.0 0.00 0.00 0.00 39 1023.4
20210804155806 78 0 0.0 0.0 0.00 0.00 0.00 40 1023.4
20210804155201 78 0 0.0 0.0 0.00 0.00 0.00 40 1023.4
20210804154700 78 0 0.0 0.0 0.00 0.00 0.00 39 1023.4
20210804154159 78 0 0.0 0.0 0.00 0.00 0.00 37 1023.4
20210804153658 78 0 0.0 0.0 0.00 0.00 0.00 38 1023.4
20210804153158 77 0 0.0 0.0 0.00 0.00 0.00 39 1023.4
20210804152552 77 0 0.0 0.0 0.00 0.00 0.00 40 1023.4
20210804152019 78 0 0.0 0.0 0.00 0.00 0.00 38 1023.4
20210804151444 79 0 0.0 0.0 0.00 0.00 0.00 38 1023.4
20210804150943 79 0 0.0 0.0 0.00 0.00 0.00 37 1023.4
20210804150442 78 0 0.0 0.0 0.00 0.00 0.00 39 1023.7
20210804145941 77 0 0.0 0.0 0.00 0.05 0.00 39 1023.4
20210804145407 75 0 0.0 0.0 0.00 0.05 0.00 40 1023.4
20210804144907 74 0 0.0 0.0 0.00 0.05 0.00 41 1023.4
20210804144406 74 0 0.0 0.0 0.00 0.05 0.00 40 1023.4
20210804143905 74 0 0.0 0.0 0.00 0.05 0.00 40 1023.4
20210804143403 76 0 0.0 0.0 0.00 0.05 0.00 38 1023.4
20210804142725 77 0 0.0 0.0 0.00 0.05 0.00 41 1023.4
20210804142120 75 0 0.0 0.0 0.00 0.05 0.00 45 1023.4
20210804141514 73 0 0.0 0.0 0.00 0.05 0.00 47 1023.4
20210804141013 71 0 0.0 0.0 0.00 0.05 0.00 50 1023.4
20210804140512 70 0 0.0 0.0 0.00 0.05 0.00 50 1023.4
20210804135938 69 0 0.0 0.0 0.00 0.05 0.00 52 1023.0
20210804135438 67 0 0.0 0.0 0.00 0.05 0.00 55 1023.0
20210804134728 65 0 0.0 0.0 0.00 0.05 0.00 56 1023.0
20210804134227 64 0 0.0 0.0 0.00 0.05 0.00 58 1023.0
20210804133654 64 0 0.0 0.0 0.00 0.05 0.00 58 1023.0
20210804133048 64 0 0.0 0.0 0.00 0.05 0.00 58 1022.7
20210804132514 63 0 0.0 0.0 0.00 0.05 0.00 58 1022.7
20210804131941 62 0 0.0 0.0 0.00 0.05 0.00 59 1022.7
20210804131408 62 0 0.0 0.0 0.00 0.05 0.00 60 1022.7
20210804130907 62 0 0.0 0.0 0.00 0.05 0.00 58 1022.4
20210804130301 62 0 0.0 0.0 0.00 0.05 0.00 58 1022.4
20210804125800 62 0 0.0 0.0 0.00 0.05 0.00 58 1022.4
20210804125155 62 0 0.0 0.0 0.00 0.05 0.00 59 1022.4
20210804124622 62 0 0.0 0.0 0.00 0.05 0.00 58 1022.4
20210804124121 61 0 0.0 0.0 0.00 0.05 0.00 58 1022.4
20210804123443 61 0 0.0 0.0 0.00 0.05 0.00 59 1022.4
20210804122942 61 0 0.0 0.0 0.00 0.05 0.00 59 1022.4
20210804122408 61 0 0.0 0.0 0.00 0.05 0.00 59 1022.4
20210804121907 61 0 0.0 0.0 0.00 0.05 0.00 58 1022.4
20210804121406 62 0 0.0 0.0 0.00 0.05 0.00 57 1022.4
20210804120905 62 0 0.0 0.0 0.00 0.05 0.00 57 1022.4
20210804120331 63 0 0.0 0.0 0.00 0.05 0.00 57 1022.4
20210804115830 63 0 0.0 0.0 0.00 0.05 0.00 58 1022.0
20210804115257 63 0 0.0 0.0 0.00 0.05 0.00 58 1022.0
20210804114756 63 0 0.0 0.0 0.00 0.05 0.00 57 1022.0
20210804114223 63 0 0.0 0.0 0.00 0.05 0.00 57 1022.0
20210804113617 63 0 0.0 0.0 0.00 0.05 0.00 57 1022.0
20210804113116 63 0 0.0 0.0 0.00 0.05 0.00 57 1022.0
20210804112615 63 0 0.0 0.0 0.00 0.05 0.00 56 1022.0
20210804111937 63 0 0.0 0.0 0.00 0.05 0.00 56 1022.0
20210804111436 62 0 0.0 0.0 0.00 0.05 0.00 56 1022.0
20210804110726 62 0 0.0 0.0 0.00 0.05 0.00 57 1022.0
20210804110152 62 0 0.0 0.0 0.00 0.05 0.00 57 1022.0
20210804105651 62 0 0.0 0.0 0.00 0.05 0.00 57 1022.0
20210804105014 62 0 0.0 0.0 0.00 0.05 0.00 57 1022.0
20210804104512 61 0 0.0 0.0 0.00 0.05 0.00 59 1022.0
20210804103907 61 0 0.0 0.0 0.00 0.05 0.00 60 1021.7
20210804103302 61 0 0.0 0.0 0.00 0.05 0.00 60 1021.7
20210804102801 61 0 0.0 0.0 0.00 0.05 0.00 60 1021.7
20210804102259 61 0 0.0 0.0 0.00 0.05 0.00 59 1021.7
20210804101758 62 0 0.0 0.0 0.00 0.05 0.00 58 1021.7
20210804101153 62 0 0.0 0.0 0.00 0.05 0.00 57 1021.3
20210804100443 62 0 0.0 0.0 0.00 0.05 0.00 59 1021.3
20210804095942 63 0 0.0 0.0 0.00 0.05 0.00 58 1021.3
20210804095441 63 0 0.0 0.0 0.00 0.05 0.00 57 1021.3
20210804094835 63 0 0.0 0.0 0.00 0.05 0.00 58 1021.7
20210804094229 63 0 0.0 0.0 0.00 0.05 0.00 58 1021.3
20210804093729 63 0 0.0 0.0 0.00 0.05 0.00 58 1021.3
20210804093123 63 0 0.0 0.0 0.00 0.05 0.00 59 1021.7
20210804092341 63 0 0.0 0.0 0.00 0.05 0.00 58 1021.7
20210804091840 63 0 0.0 0.0 0.00 0.05 0.00 57 1021.7
20210804091339 64 0 0.0 0.0 0.00 0.05 0.00 56 1021.7
20210804090806 64 0 0.0 0.0 0.00 0.05 0.00 54 1021.7
20210804090233 64 0 0.0 0.0 0.00 0.05 0.00 54 1021.7
20210804085700 65 0 0.0 0.0 0.00 0.05 0.00 54 1021.7
20210804085159 65 0 0.0 0.0 0.00 0.05 0.00 53 1021.7
20210804084658 65 0 0.0 0.0 0.00 0.05 0.00 53 1021.7
20210804084157 66 0 0.0 0.0 0.00 0.05 0.00 53 1021.7
20210804083624 66 0 0.0 0.0 0.00 0.05 0.00 53 1021.7
20210804083123 66 0 0.0 0.0 0.00 0.05 0.00 51 1021.7
20210804082445 67 0 0.0 0.0 0.00 0.05 0.00 50 1021.7
20210804081945 67 0 0.0 0.0 0.00 0.05 0.00 51 1022.0
20210804081444 68 0 0.0 0.0 0.00 0.05 0.00 49 1022.0
20210804080909 68 0 0.0 0.0 0.00 0.05 0.00 49 1022.0
20210804075435 67 0 0.0 0.0 0.00 0.05 0.00 52 1022.0
20210804074934 67 0 0.0 0.0 0.00 0.05 0.00 52 1022.0
20210804074433 67 0 0.0 0.0 0.00 0.05 0.00 52 1022.0
20210804073932 67 0 0.0 0.0 0.00 0.05 0.00 53 1022.0
20210804073327 68 0 0.0 0.0 0.00 0.05 0.00 51 1022.0
20210804072826 68 0 0.0 0.0 0.00 0.05 0.00 51 1022.0
20210804072325 68 0 0.0 0.0 0.00 0.05 0.00 50 1022.0
20210804071751 68 0 0.0 0.0 0.00 0.05 0.00 50 1022.0
20210804071042 68 0 0.0 0.0 0.00 0.05 0.00 49 1022.0
20210804070509 68 0 0.0 0.0 0.00 0.05 0.00 51 1022.0
20210804065936 68 0 0.0 0.0 0.00 0.05 0.00 51 1022.0
20210804065435 68 0 0.0 0.0 0.00 0.05 0.00 51 1022.0
20210804064934 68 0 0.0 0.0 0.00 0.05 0.00 48 1022.0
20210804064401 69 0 0.0 0.0 0.00 0.05 0.00 48 1022.0
20210804063755 69 0 0.0 0.0 0.00 0.05 0.00 47 1022.0
20210804063222 70 0 0.0 0.0 0.00 0.05 0.00 47 1022.0
20210804062721 70 0 0.0 0.0 0.00 0.05 0.00 47 1022.0
20210804062220 70 0 0.0 0.0 0.00 0.05 0.00 46 1022.0
20210804061719 71 0 0.0 0.0 0.00 0.05 0.00 46 1022.0
20210804061114 71 0 0.0 0.0 0.00 0.05 0.00 45 1022.0
20210804060436 71 0 0.0 0.0 0.00 0.05 0.00 45 1022.0
20210804055935 71 0 0.0 0.0 0.00 0.05 0.05 46 1022.0
20210804055153 71 0 0.0 0.0 0.00 0.05 0.05 45 1022.0
20210804054652 72 0 0.0 0.0 0.00 0.05 0.05 45 1021.7
20210804054046 72 0 0.0 0.0 0.00 0.05 0.05 44 1022.0
20210804053545 73 0 0.0 0.0 0.00 0.05 0.05 43 1022.0
20210804053012 74 0 0.0 0.0 0.00 0.05 0.05 40 1022.0
20210804052439 74 0 0.0 0.0 0.00 0.05 0.05 39 1021.7
20210804051906 74 0 0.0 0.0 0.00 0.05 0.05 40 1021.7
20210804051406 74 0 0.0 0.0 0.00 0.05 0.05 40 1021.7
20210804050800 74 0 0.0 0.0 0.00 0.05 0.05 40 1021.7
20210804050227 74 0 0.0 0.0 0.00 0.05 0.05 41 1022.0
20210804045726 74 0 0.0 0.0 0.00 0.05 0.05 41 1021.7
20210804045225 74 0 0.0 0.0 0.00 0.05 0.05 41 1021.7
20210804044652 74 0 0.0 0.0 0.00 0.05 0.05 42 1021.7
20210804043909 74 0 0.0 0.0 0.00 0.05 0.05 41 1021.7
20210804043408 75 0 0.0 0.0 0.00 0.05 0.05 41 1021.7
20210804042835 75 0 0.0 0.0 0.00 0.05 0.05 40 1021.7
20210804042157 76 0 0.0 0.0 0.00 0.05 0.05 40 1021.7
20210804041656 76 0 0.0 0.0 0.00 0.05 0.05 39 1021.7
20210804041155 76 0 0.0 0.0 0.00 0.05 0.05 38 1021.7
20210804040654 76 0 0.0 0.0 0.00 0.05 0.05 38 1021.7
20210804040153 76 0 0.0 0.0 0.00 0.05 0.05 38 1021.7
20210804035652 76 0 0.0 0.0 0.00 0.05 0.05 38 1021.7
20210804035152 76 0 0.0 0.0 0.00 0.05 0.05 38 1021.7
20210804034651 76 0 0.0 0.0 0.00 0.05 0.05 38 1021.3
20210804034150 76 0 0.0 0.0 0.00 0.05 0.05 38 1021.7
20210804033648 76 0 0.0 0.0 0.00 0.05 0.05 38 1021.7
20210804033115 76 0 0.0 0.0 0.00 0.05 0.05 38 1021.7
20210804032614 76 0 0.0 0.0 0.00 0.05 0.05 37 1021.3
20210804032113 77 0 0.0 0.0 0.00 0.05 0.05 37 1021.3
20210804031540 77 0 0.0 0.0 0.00 0.05 0.05 37 1021.3
20210804031007 77 0 0.0 0.0 0.00 0.05 0.05 36 1021.3
20210804030434 77 0 0.0 0.0 0.00 0.05 0.05 35 1021.3
20210804025933 78 0 0.0 0.0 0.00 0.05 0.05 35 1021.3
20210804025432 78 0 0.0 0.0 0.00 0.05 0.05 35 1021.3
20210804024931 79 0 0.0 0.0 0.00 0.05 0.05 34 1021.3
20210804024430 79 0 0.0 0.0 0.00 0.05 0.05 33 1021.3
20210804023721 79 0 0.0 0.0 0.00 0.05 0.05 33 1021.3
20210804023220 80 0 0.0 0.0 0.00 0.05 0.05 33 1021.3
20210804022719 81 0 0.0 0.0 0.00 0.05 0.05 31 1021.3
20210804022041 82 0 0.0 0.0 0.00 0.05 0.05 31 1021.3
20210804021540 82 0 0.0 0.0 0.00 0.05 0.05 30 1021.3
20210804021040 83 0 0.0 0.0 0.00 0.05 0.05 29 1021.3
20210804020506 83 0 0.0 0.0 0.00 0.05 0.05 29 1021.3
20210804020005 84 0 0.0 0.0 0.00 0.05 0.05 29 1021.3
20210804015255 84 0 0.0 0.0 0.00 0.05 0.05 28 1021.3
20210804014754 84 0 0.0 0.0 0.00 0.05 0.05 28 1021.3
20210804014254 84 0 0.0 0.0 0.00 0.05 0.05 28 1021.3
20210804013752 84 0 0.0 0.0 0.00 0.05 0.05 27 1021.3
20210804013219 85 0 0.0 0.0 0.00 0.05 0.05 26 1021.3
20210804012646 85 0 0.0 0.0 0.00 0.05 0.05 27 1021.3
20210804012145 85 0 0.0 0.0 0.00 0.05 0.05 26 1021.0
20210804011643 86 0 0.0 0.0 0.00 0.05 0.05 26 1021.3
20210804011110 85 0 0.0 0.0 0.00 0.05 0.05 26 1021.3
20210804010505 85 0 0.0 0.0 0.00 0.05 0.05 27 1021.3
20210804010004 85 0 0.0 0.0 0.00 0.05 0.05 26 1021.3
20210804005504 85 0 0.0 0.0 0.00 0.05 0.05 26 1021.3
20210804004930 85 0 0.0 0.0 0.00 0.05 0.05 27 1021.3
20210804004325 86 0 0.0 0.0 0.00 0.05 0.05 26 1021.3
20210804003824 86 0 0.0 0.0 0.00 0.05 0.05 28 1021.3
20210804003323 86 0 0.0 0.0 0.00 0.05 0.05 28 1021.3
20210804002822 87 0 0.0 0.0 0.00 0.05 0.05 26 1021.7
20210804002248 87 0 0.0 0.0 0.00 0.05 0.05 26 1021.7
20210804001748 86 0 0.0 0.0 0.00 0.05 0.05 28 1021.7
20210804001247 86 0 0.0 0.0 0.00 0.05 0.05 28 1021.7
20210804000609 86 0 0.0 0.0 0.00 0.05 0.05 28 1021.7
20210803235827 87 0 0.0 0.0 0.00 0.05 0.05 28 1021.7
20210803235327 86 0 0.0 0.0 0.00 0.05 0.05 28 1021.7
20210803234825 86 0 0.0 0.0 0.00 0.05 0.05 29 1021.7
20210803234220 86 0 0.0 0.0 0.00 0.05 0.05 30 1021.7
20210803233543 86 0 0.0 0.0 0.00 0.05 0.05 29 1022.0
20210803232906 86 0 0.0 0.0 0.00 0.05 0.05 29 1022.0
20210803232405 86 0 0.0 0.0 0.00 0.05 0.05 29 1022.4
20210803231904 86 0 0.0 0.0 0.00 0.05 0.05 29 1022.4
20210803231330 86 0 0.0 0.0 0.00 0.05 0.05 30 1022.4
20210803230829 86 0 0.0 0.0 0.00 0.05 0.05 30 1022.4
20210803230329 86 0 0.0 0.0 0.00 0.05 0.05 30 1022.4
20210803225828 86 0 0.0 0.0 0.00 0.05 0.05 30 1022.4
20210803225326 86 0 0.0 0.0 0.00 0.05 0.05 29 1022.4
20210803224719 85 0 0.0 0.0 0.00 0.05 0.05 30 1022.4
20210803224218 86 0 0.0 0.0 0.00 0.05 0.05 30 1022.7
20210803223645 86 0 0.0 0.0 0.00 0.05 0.05 28 1022.7
20210803223144 86 0 0.0 0.0 0.00 0.05 0.05 29 1022.7
20210803222643 86 0 0.0 0.0 0.00 0.05 0.05 28 1022.7
20210803222142 86 0 0.0 0.0 0.00 0.05 0.05 29 1022.7
20210803221641 86 0 0.0 0.0 0.00 0.05 0.05 29 1022.7
20210803221140 86 0 0.0 0.0 0.00 0.05 0.05 26 1022.7
20210803220535 86 0 0.0 0.0 0.00 0.05 0.05 28 1022.7
20210803214438 87 0 0.0 0.0 0.00 0.05 0.05 25 1022.7
20210803213937 86 0 0.0 0.0 0.00 0.05 0.05 25 1022.7
20210803213332 86 0 0.0 0.0 0.00 0.05 0.05 28 1022.7
20210803212759 86 0 0.0 0.0 0.00 0.05 0.05 28 1022.7
20210803212258 86 0 0.0 0.0 0.00 0.05 0.05 29 1022.7
20210803211757 86 0 0.0 0.0 0.00 0.05 0.05 28 1022.7
20210803211255 86 0 0.0 0.0 0.00 0.05 0.05 28 1022.7
20210803210755 86 0 0.0 0.0 0.00 0.05 0.05 28 1022.7
20210803205335 85 0 0.0 0.0 0.00 0.08 0.05 32 1022.7
20210803204834 85 0 0.0 0.0 0.00 0.08 0.05 31 1022.7
20210803204301 85 0 0.0 0.0 0.00 0.08 0.05 30 1023.0
20210803203728 85 0 0.0 0.0 0.00 0.08 0.05 32 1023.0
20210803203153 85 0 0.0 0.0 0.00 0.08 0.05 32 1023.4
20210803202652 84 0 0.0 0.0 0.00 0.08 0.05 32 1023.4
20210803202151 84 0 0.0 0.0 0.00 0.08 0.05 32 1023.4
20210803201650 84 0 0.0 0.0 0.00 0.08 0.05 33 1023.4
20210803201045 84 0 0.0 0.0 0.00 0.08 0.05 32 1023.4
20210803200544 84 0 0.0 0.0 0.00 0.08 0.05 33 1023.4
20210803195834 83 0 0.0 0.0 0.00 0.08 0.05 32 1023.4
20210803195333 83 0 0.0 0.0 0.00 0.08 0.05 34 1023.4
20210803194800 83 0 0.0 0.0 0.00 0.08 0.05 33 1023.7
20210803194227 83 0 0.0 0.0 0.00 0.08 0.05 33 1023.7
20210803193725 83 0 0.0 0.0 0.00 0.08 0.05 32 1023.7
20210803193152 83 0 0.0 0.0 0.00 0.08 0.05 34 1023.7
20210803192651 83 0 0.0 0.0 0.00 0.08 0.05 34 1023.7
20210803192150 84 0 0.0 0.0 0.00 0.08 0.05 34 1023.7